User: anonymous   Login
Location: Nashville
(36.1660°N, 86.7840°W)
Time: 13:01:34
(UTC-05:00)
Language:

TIGRISAT - Orbit

View from above orbital plane
View from above orbital plane
View from above satellite
View from above satellite

Ground track
Ground track

The orbit data is extracted from the following two-line orbital elements,

1 40043U 14033AK  22135.52920967  .00001297  00000-0  19542-3 0  9998
2 40043  97.6574 326.5666 0057845 263.0042  96.4586 14.74928880424774
Epoch (UTC): 15 May 2022 12:42:03
Eccentricity: 0.0057845
inclination: 97.6574°
perigee height: 605 km
apogee height: 686 km
right ascension of ascending node: 326.5666°
argument of perigee: 263.0042°
revolutions per day: 14.74928880
mean anomaly at epoch: 96.4586°
orbit number at epoch: 42477

The dashed part of the orbit path shows where the satellite is in the earth's shadow,  

DLR